www.pogodaiklimat.ru

Погода и климат >> Архив погоды >> Кот-д'Ивуар >> Абиджан


АРХИВ ПОГОДЫ в Абиджане

Время (UTC), дата Ветер
(напр.,м/с)
 
Видим.   Явления Облачность Т
(С)
Тd
(С)
f
(%)
Тe
(С)
Тes
(С)
Комфортность P
(гПа)
Po
(гПа)
Тmin
(С)
Tmax
(С)
R
(мм)
R24
(мм)
S
(см)
09 14.07 ЮЗ 3 8000 м 6/6 600 м
[Sc]
+25.9 +23.2 85 +35 +38 очень
душно
1016.3 1015.5
12 14.07 Ю 4 10 км 4/4 600 м
[Sc]
+27.7 +22.3 72 +36 +44 очень
душно
1015.3 1014.5
15 14.07 Ю 4 10 км 3/3 600 м
[Sc]
+27.8 +23.3 77 +38 +43 очень
душно
1013.0 1012.2
18 14.07 Ю 3 8000 м 3/3 600 м
[Sc]
+25.6 +23.1 86 +34 +34 очень
душно
1012.7 1011.9 +28.3
21 14.07 Ю 2 8000 м 4/4 600 м
[Sc]
+24.7 +23.3 92 +33 +33 очень
душно
1014.1 1013.3
00 15.07 З 1 8000 м 5/5 600 м
[Sc]
+24.0 +23.3 96 +32 +32 очень
душно
1013.8 1013.0
03 15.07 З 1 8000 м 5/5 600 м
[Sc]
+24.0 +23.5 97 +32 +32 очень
душно
1013.4 1012.6
06 15.07 ЮЗ 1 8000 м 5/5 600 м
[Sc]
+24.0 +23.2 95 +32 +32 очень
душно
1013.4 1012.6 +23.8
09 15.07 ЮЗ 3 8000 м 8/8 400 м
[Cu Sc]
+25.4 +23.9 91 +35 +36 очень
душно
1014.2 1013.4
12 15.07 ЮЗ 4 10 км 9/6 600 м
[Sc Ac As]
+26.7 +23.6 83 +36 +39 очень
душно
1013.6 1012.8
15 15.07 ЮЗ 4 10 км 9/6 600 м
[Sc Ac trans]
+27.0 +22.7 77 +36 +37 очень
душно
1011.8 1011.0
18 15.07 ЮЗ 3 10 км 8/8 600 м
[Sc Ac trans]
+25.5 +23.2 87 +34 +34 очень
душно
1011.5 1010.7 +27.8
21 15.07 З 2 8000 м 6/5 600 м
[Sc Ac trans]
+24.3 +23.6 96 +33 +33 очень
душно
1013.2 1012.4
00 16.07 ЮЗ 2 8000 м 4/4 600 м
[Sc]
+24.2 +23.7 97 +33 +33 очень
душно
1013.4 1012.6
03 16.07 ЮВ 2 4000 м дымка 4/4 600 м
[Sc]
+23.9 +23.6 98 +32 +32 очень
душно
1011.9 1011.1
06 16.07 З 2 8000 м 8/8 600 м
[]
+23.8 +23.5 98 +32 +32 очень
душно
1012.9 1012.1 +23.6
09 16.07 ЮЗ 3 8000 м 6/5 400 м
[Cu Sc Ci sp]
+26.4 +24.1 87 +37 +40 очень
душно
1014.2 1013.4
12 16.07 Ю 4 10 км 8/5 400 м
[Cu Sc Ac trans]
+28.1 +24.2 79 +39 +43 очень
душно
1014.5 1013.7
15 16.07 ЮЗ 4 10 км 8/4 400 м
[Cu Sc Ac trans]
+28.2 +24.1 78 +39 +42 очень
душно
1012.4 1011.6
18 16.07 Ю 5 10 км 9/6 210 м
[Sc Ac trans]
+25.9 +23.8 88 +35 +35 очень
душно
1012.7 1011.9 +28.8
21 16.07 ЮЗ 3 8000 м 9/6 600 м
[Sc Ac trans]
+25.2 +23.5 90 +34 +34 очень
душно
1014.4 1013.6
00 17.07 Ю 2 8000 м 6/6 600 м
[Sc Ac trans]
+24.5 +23.5 94 +33 +33 очень
душно
1014.9 1014.1
03 17.07 З 3 7000 м в посл. час дождь 9/9 210 м
[Sc]
+24.4 +23.9 97 +33 +33 очень
душно
1013.7 1012.9
06 17.07 ЮЗ 2 6000 м слаб. дождь 10/10 210 м
[Sc]
+24.1 +23.8 98 +33 +33 очень
душно
1014.7 1013.9 +24.0 5
09 17.07 Ю 2 6000 м {дождь} 10/10 210 м
[Sc]
+24.1 +23.6 97 +33 +33 очень
душно
1016.7 1015.9
12 17.07 ЮЗ 3 10 км {дождь} 9/5 600 м
[Sc Ac trans]
+27.3 +24.6 85 +39 +43 очень
душно
1016.1 1015.3 9
15 17.07 ЮЗ 4 10 км 9/6 210 м
[Sc Ac trans]
+26.7 +23.4 82 +36 +38 очень
душно
1014.0 1013.2
18 17.07 ЮЗ 2 10 км 8/5 600 м
[Sc Ac trans]
+25.7 +23.8 89 +35 +35 очень
душно
1013.4 1012.6 +27.3 9
21 17.07 ЮЗ 2 8000 м 9/6 600 м
[Sc Ac trans]
+24.6 +23.9 96 +34 +34 очень
душно
1014.5 1013.7
00 18.07 З 2 8000 м 8/4 600 м
[Sc Ac trans]
+24.0 +23.5 97 +32 +32 очень
душно
1015.1 1014.3
03 18.07 З 2 8000 м 8/8 180 м
[Sc]
+24.4 +24.1 98 +34 +34 очень
душно
1013.5 1012.7
06 18.07 ЮЗ 2 7000 м 6/6 180 м
[Sc]
+24.1 +23.4 96 +32 +32 очень
душно
1014.4 1013.6 +23.9 9
09 18.07 З 2 7000 м 10/10 600 м
[Sc]
+25.6 +23.5 88 +35 +35 очень
душно
1015.8 1015.0
12 18.07 ЮЗ 4 8000 м 9/9 600 м
[Sc]
+26.6 +23.3 82 +36 +37 очень
душно
1015.0 1014.2
15 18.07 ЮЗ 5 10 км 9/6 600 м
[Sc Ac trans]
+27.8 +23.3 77 +38 +39 очень
душно
1013.3 1012.5
18 18.07 ЮЗ 4 8000 м 6/4 600 м
[Sc Ac trans]
+25.8 +23.3 86 +35 +35 очень
душно
1012.6 1011.8 +28.0
21 18.07 З 3 8000 м 6/6 600 м
[Sc Ac trans]
+24.4 +23.6 95 +33 +33 очень
душно
1014.0 1013.2
00 19.07 ЮЗ 3 8000 м 8/5 600 м
[Sc Ac trans]
+24.5 +23.7 95 +33 +33 очень
душно
1014.8 1014.0
03 19.07 ЮЗ 2 8000 м 8/8 600 м
[Sc]
+24.4 +23.9 97 +33 +33 очень
душно
1014.0 1013.2
06 19.07 ЮЗ 3 8000 м {дождь} 9/9 600 м
[Sc]
+24.5 +23.7 95 +33 +33 очень
душно
1014.5 1013.7 +24.2 0.4
09 19.07 ЮЗ 3 8000 м 9/9 210 м
[]
+25.2 +24.0 93 +35 +35 очень
душно
1015.9 1015.1
12 19.07 ЮЗ 6 8000 м 8/5 600 м
[Sc Ac trans]
+26.6 +24.1 86 +37 +39 очень
душно
1015.6 1014.8
15 19.07 ЮЗ 5 10 км 8/6 600 м
[Sc Ac trans]
+27.3 +24.0 82 +38 +39 очень
душно
1013.3 1012.5
18 19.07 ЮЗ 3 10 км 9/8 210 м
[Cb cap Ac trans]
+25.3 +23.9 92 +35 +35 очень
душно
1012.7 1011.9 +27.5
21 19.07 З 2 8000 м 6/5 600 м
[Sc Ac trans]
+24.8 +24.1 96 +34 +34 очень
душно
1015.1 1014.3
00 20.07 ЮЗ 3 8000 м 5/5 600 м
[Sc]
+25.0 +24.3 96 +35 +35 очень
душно
1015.6 1014.8
03 20.07 ЮЗ 2 8000 м 6/6 600 м
[Sc]
+24.7 +24.2 97 +34 +34 очень
душно
1014.1 1013.3
06 20.07 ЮЗ 2 7000 м 9/6 600 м
[Sc Ac As]
+24.3 +24.0 98 +33 +33 очень
душно
1014.5 1013.7 +24.2
09 20.07 ЮЗ 4 8000 м 9/5 600 м
[Sc Ac As]
+25.2 +24.0 93 +35 +36 очень
душно
1016.2 1015.4
12 20.07 ЮЗ 6 10 км 9/5 600 м
[Sc Ac trans]
+27.0 +23.9 83 +37 +39 очень
душно
1015.6 1014.8
15 20.07 ЮЗ 6 10 км 8/4 600 м
[Sc Ac trans]
+26.4 +23.7 85 +36 +38 очень
душно
1013.6 1012.8
18 20.07 ЮЗ 4 8000 м 9/5 210 м
[Sc Ac trans]
+25.2 +23.5 90 +34 +34 очень
душно
1013.2 1012.4 +28.0
21 20.07 ЮЗ 3 8000 м 5/4 600 м
[Sc Ac trans]
+24.4 +23.6 95 +33 +33 очень
душно
1015.1 1014.3
00 21.07 Ю 2 8000 м 8/6 600 м
[Sc Ac trans]
+24.5 +24.0 97 +34 +34 очень
душно
1015.8 1015.0
03 21.07 ЮЗ 2 8000 м 9/5 600 м
[Sc Ac trans]
+24.3 +23.8 97 +33 +33 очень
душно
1013.7 1012.9
06 21.07 ЮЗ 3 8000 м 9/6 210 м
[Sc Ac trans]
+24.3 +23.6 96 +33 +33 очень
душно
1014.2 1013.4 +24.2

 

Местоположение метеостанции Абиджан (Кот-д'Ивуар): широта 5.25 долгота -3.93 высота над уровнем моря 8 м.

В архиве по умолчанию представлена погода в Абиджане за последнюю неделю. Архивные данные за месяц целиком и за предыдущие месяцы, начиная с января 2011 года, Вы можете получить, выбрав интересующий диапазон дат из раскрывающегося списка и нажав кнопку "Ввод!".


*Определитесь, кто Вы:
робот инопланетянин человек

Внимание! Время в таблицах - всемирное. Для получения местного времени необходимо прибавить поправку, которая равна 0 ч.

Смотрите также архив погоды в соседних городах и на ближайших метеорологических станциях:

Погода в Адиаке (Кот-д'Ивуар) (70 км)
Погода в Димбокро (Кот-д'Ивуар) (177 км)
Погода в Аксиме (Гана) (193 км)
Погода в Сефви Беквай (Гана) (206 км)
Погода в Сассандре (Кот-д'Ивуар) (241 км)
Погода в Ямусукро (Кот-д'Ивуар) (242 км)
Погода Такоради (Гана) (243 км)
Погода в Ганьоа (Кот-д'Ивуар) (244 км)
Погода в Суняни (Гана) (291 км)
Погода в Буаке (Кот-д'Ивуар) (305 км)

Пояснения к столбцам:

Ветер - указаны скорость ветра в м/с - средняя за 10 мин, порывы в срок и между сроками (в фигурных скобках) и направление, откуда дует ветер: С - северный, СВ - северо-восточный, В - восточный, ЮВ - юго-восточный, Ю - южный, ЮЗ - юго-западный, З - западный, СЗ - северо-западный.
Видимость - горизонтальная дальность видимости в метрах или километрах. При видимости от 1 до 10 км при отсутствии осадков обычно наблюдается дымка, при ухудшении видимости до 1 км и менее - туман. В сухую погоду видимость может ухудшаться дымом, пылью или мглою.
Явления - указаны атмосферные явления, наблюдавшиеся в срок или в последний час перед сроком; фигурными скобками обозначены явления, наблюдавшиеся между сроками (за 1-3 часа до срока); квадратными скобками обозначены град или гололедные отложения с указанием их диаметра в мм.
Облачность - указаны через наклонную черту общая и нижняя облачность в баллах и высота нижней границы облаков в метрах; квадратными скобками обозначены формы облаков: Ci - перистые, Cs - перисто-слоистые, Cc - перисто-кучевые, Ac - высококучевые, As - высокослоистые, Sc - слоисто-кучевые, Ns - слоисто-дождевые, Cu - кучевые, Cb - кучево-дождевые. Подробнее классификацию облаков см. в Атласе облаков (PDF).
T - Температура воздуха - температура, измеренная на высоте 2 м над землей.
Td - Температура точки росы - температура, при понижении до которой содержащийся в воздухе водяной пар достигнет насыщения.
f - Относительная влажность воздуха - влажноcть воздуха, измеренная на высоте 2 м над землей.
Te - Эффективная температура - температура, которую ощущает одетый по сезону человек в тени. Характеристика душности погоды. При расчете учитывается влияние влажности воздуха и скорости ветра на теплоощущения человека.
Tes - Эффективная температура на солнце - температура, которую ощущает человек, с поправкой на солнечный нагрев. Характеристика знойности погоды. Зависит от высоты солнца над горизонтом, облачности и скорости ветра. Ночью, в пасмурную погоду, а также при ветре 12 м/с и более поправка равна нулю.
P - Атмосферное давление - приведенное к уровню моря атмосферное давление.
Po - Атмосферное давление - измеренное на уровне метеостанции атмосферное давление.
Tmin - Минимальная температура - минимум температуры воздуха на высоте 2 м над землей.
Tmax - Максимальная температура - максимум температуры воздуха на высоте 2 м над землей.
R - Количество осадков - Количество выпавших осадков за период времени, мм. При наведении курсора мыши на число - период времени, за который выпало указанное количество осадков.
R24 - Количество осадков - Количество выпавших осадков за 24 часа, мм.
S - Снежный покров - Высота снежного покрова, см. При наведении курсора мыши на число - состояние снежного покрова и степень покрытия местности в баллах.